EW5351 Weather Reports


time (UTC)temp
C
wind
direction
speed
KPH
gust
KPH
rain 1hr
cm
rain 24hr
cm
rain mn
cm
humidity
%
barometer
mb
20260505041336 13 277 4.8 12.9 0.00 0.00 0.00 61 1010.7
20260505040834 13 179 3.2 12.9 0.00 0.00 0.00 61 1010.7
20260505040335 13 259 4.8 12.9 0.00 0.00 0.00 61 1010.8
20260505035834 13 201 6.4 20.9 0.00 0.00 0.00 60 1010.7
20260505035334 13 154 4.8 20.9 0.00 0.00 0.00 60 1010.6
20260505034834 13 183 4.8 16.1 0.00 0.00 0.00 59 1010.6
20260505034334 13 215 4.8 17.7 0.00 0.00 0.00 59 1010.5
20260505033833 14 208 4.8 17.7 0.00 0.00 0.00 59 1010.5
20260505033333 14 242 4.8 16.1 0.00 0.00 0.00 58 1010.5
20260505032834 14 188 4.8 12.9 0.00 0.00 0.00 58 1010.5
20260505032335 14 192 4.8 14.5 0.00 0.00 0.00 57 1010.4
20260505031834 14 98 4.8 14.5 0.00 0.00 0.00 57 1010.4
20260505031333 14 281 6.4 14.5 0.00 0.00 0.00 57 1010.5
20260505030330 14 201 4.8 16.1 0.00 0.00 0.00 56 1010.4
20260505025829 14 217 6.4 14.5 0.00 0.00 0.00 55 1010.5
20260505025330 14 184 6.4 14.5 0.00 0.00 0.00 55 1010.6
20260505024829 15 216 6.4 20.9 0.00 0.00 0.00 54 1010.5
20260505024327 15 218 6.4 20.9 0.00 0.00 0.00 54 1010.5
20260505023328 15 186 4.8 19.3 0.00 0.00 0.00 53 1010.6
20260505022826 15 126 6.4 16.1 0.00 0.00 0.00 52 1010.6
20260505021324 15 148 6.4 19.3 0.00 0.00 0.00 51 1010.6
20260505020823 15 172 6.4 16.1 0.00 0.00 0.00 50 1010.6
20260505020322 15 175 6.4 17.7 0.00 0.00 0.00 50 1010.6
20260505015821 15 245 6.4 17.7 0.00 0.00 0.00 49 1010.5
20260505015321 15 156 6.4 22.5 0.00 0.00 0.00 49 1010.4
20260505014822 15 250 6.4 22.5 0.00 0.00 0.00 49 1010.5
20260505014320 15 252 6.4 14.5 0.00 0.00 0.00 48 1010.5
20260505013821 16 212 6.4 16.1 0.00 0.00 0.00 48 1010.4
20260505012818 16 130 6.4 19.3 0.00 0.00 0.00 47 1010.2
20260505012317 16 152 8.0 22.5 0.00 0.00 0.00 47 1010.2
20260505011817 16 154 8.0 25.7 0.00 0.00 0.00 47 1010.1
20260505010817 16 215 6.4 19.3 0.00 0.00 0.00 45 1009.9
20260505010319 16 245 6.4 17.7 0.00 0.00 0.00 45 1009.9
20260505005817 16 157 8.0 22.5 0.00 0.00 0.00 45 1009.8
20260505005316 16 189 9.7 25.7 0.00 0.00 0.00 44 1009.8
20260505004818 17 177 9.7 29.0 0.00 0.00 0.00 44 1009.7
20260505004317 17 173 6.4 29.0 0.00 0.00 0.00 44 1009.6
20260505003817 17 150 8.0 25.7 0.00 0.00 0.00 44 1009.4
20260505003317 17 152 8.0 25.7 0.00 0.00 0.00 44 1009.3
20260505002817 17 216 8.0 22.5 0.00 0.00 0.00 44 1009.2
20260505001819 17 235 8.0 22.5 0.00 0.00 0.00 43 1008.8
20260505001318 17 227 8.0 20.9 0.00 0.00 0.00 43 1008.7
20260505000817 17 165 6.4 22.5 0.00 0.00 0.00 43 1008.6
20260505000316 18 221 6.4 22.5 0.00 0.00 0.00 43 1008.5
20260504235816 18 206 8.0 22.5 0.00 0.00 0.00 42 1008.4
20260504235316 18 213 8.0 22.5 0.00 0.00 0.00 42 1008.3
20260504234817 18 221 8.0 22.5 0.00 0.00 0.00 42 1008.2
20260504234316 18 217 6.4 22.5 0.00 0.00 0.00 42 1008.1
20260504233818 18 246 8.0 22.5 0.00 0.00 0.00 41 1008.0
20260504233317 18 13 9.7 22.5 0.00 0.00 0.00 41 1008.0
20260504232317 19 25 6.4 22.5 0.00 0.00 0.00 40 1007.8
20260504231817 19 234 8.0 22.5 0.00 0.00 0.00 40 1007.7
20260504231315 19 241 8.0 24.1 0.00 0.00 0.00 39 1007.5
20260504230815 20 236 9.7 32.2 0.00 0.00 0.00 38 1007.4
20260504230314 20 182 8.0 32.2 0.00 0.00 0.00 37 1007.3
20260504225814 20 314 6.4 19.3 0.00 0.00 0.00 37 1007.2
20260504225311 20 257 6.4 19.3 0.00 0.00 0.00 36 1007.1
20260504224810 20 335 6.4 19.3 0.00 0.00 0.00 35 1007.0
20260504224310 20 318 6.4 19.3 0.00 0.00 0.00 35 1007.0
20260504223811 20 162 8.0 19.3 0.00 0.00 0.00 34 1006.8
20260504223308 20 177 8.0 22.5 0.00 0.00 0.00 34 1006.7
20260504222809 21 256 9.7 25.7 0.00 0.00 0.00 33 1006.7
20260504222310 21 263 8.0 25.7 0.00 0.00 0.00 32 1006.6
20260504221807 21 121 4.8 17.7 0.00 0.00 0.00 30 1006.7
20260504220806 21 197 8.0 20.9 0.00 0.00 0.00 29 1006.6
20260504220306 22 9 9.7 32.2 0.00 0.00 0.00 29 1006.6
20260504215806 22 225 8.0 32.2 0.00 0.00 0.00 28 1006.7
20260504215308 22 250 6.4 30.6 0.00 0.00 0.00 28 1006.7
20260504214807 22 218 6.4 30.6 0.00 0.00 0.00 29 1006.6
20260504214306 22 202 4.8 19.3 0.00 0.00 0.00 28 1006.7
20260504213808 22 270 4.8 22.5 0.00 0.00 0.00 28 1006.6
20260504212806 22 184 8.0 30.6 0.00 0.00 0.00 28 1006.7
20260504212306 22 302 6.4 20.9 0.00 0.00 0.00 28 1006.7
20260504211806 22 345 8.0 22.5 0.00 0.00 0.00 28 1006.6
20260504210804 22 272 9.7 27.4 0.00 0.00 0.00 27 1006.6
20260504205805 23 174 4.8 22.5 0.00 0.00 0.00 27 1006.6
20260504205304 22 234 4.8 22.5 0.00 0.00 0.00 27 1006.7
20260504204805 22 266 6.4 24.1 0.00 0.00 0.00 27 1006.6
20260504204305 22 329 9.7 24.1 0.00 0.00 0.00 27 1006.7
20260504203805 22 261 11.3 33.8 0.00 0.00 0.00 27 1006.8
20260504203306 22 218 9.7 33.8 0.00 0.00 0.00 26 1006.7
20260504202802 23 202 8.0 29.0 0.00 0.00 0.00 26 1006.7
20260504202304 23 165 9.7 29.0 0.00 0.00 0.00 25 1006.7
20260504201802 23 90 11.3 30.6 0.00 0.00 0.00 25 1006.7
20260504201302 23 269 9.7 30.6 0.00 0.00 0.00 25 1006.8
20260504200803 23 269 9.7 29.0 0.00 0.00 0.00 25 1007.0
20260504200303 23 330 8.0 29.0 0.00 0.00 0.00 25 1006.8
20260504195803 23 258 9.7 30.6 0.00 0.00 0.00 24 1007.0
20260504195304 23 222 11.3 32.2 0.00 0.00 0.00 24 1007.0
20260504194302 23 148 9.7 35.4 0.00 0.00 0.00 24 1006.8
20260504193302 23 191 11.3 30.6 0.00 0.00 0.00 24 1006.8
20260504192800 23 268 11.3 29.0 0.00 0.00 0.00 23 1006.8
20260504191800 23 242 11.3 30.6 0.00 0.00 0.00 24 1007.1
20260504191259 23 296 9.7 30.6 0.00 0.00 0.00 24 1007.0
20260504190800 22 234 12.9 33.8 0.00 0.00 0.00 24 1007.1
20260504190300 23 325 11.3 33.8 0.00 0.00 0.00 23 1007.1
20260504185800 23 337 9.7 25.7 0.00 0.00 0.00 24 1007.1
20260504185300 23 233 11.3 27.4 0.00 0.00 0.00 23 1007.3
20260504184800 23 188 9.7 27.4 0.00 0.00 0.00 23 1007.1
20260504184301 23 253 11.3 29.0 0.00 0.00 0.00 24 1007.4
20260504183300 23 240 9.7 27.4 0.00 0.00 0.00 23 1007.3
20260504182800 23 248 9.7 27.4 0.00 0.00 0.00 23 1007.4
20260504182304 23 246 9.7 25.7 0.00 0.00 0.00 24 1007.5
20260504181258 24 271 8.0 30.6 0.00 0.00 0.00 23 1007.5
20260504180758 23 339 9.7 30.6 0.00 0.00 0.00 24 1007.5
20260504180258 23 269 9.7 29.0 0.00 0.00 0.00 24 1007.6
20260504175759 23 277 9.7 27.4 0.00 0.00 0.00 24 1007.6
20260504175259 22 236 12.9 33.8 0.00 0.00 0.00 25 1007.6
20260504174758 22 223 14.5 33.8 0.00 0.00 0.00 25 1007.7
20260504173758 22 311 12.9 37.0 0.00 0.00 0.00 24 1007.6
20260504173259 22 234 12.9 37.0 0.00 0.00 0.00 24 1007.7
20260504172758 23 266 9.7 35.4 0.00 0.00 0.00 24 1007.9
20260504172258 23 253 8.0 29.0 0.00 0.00 0.00 24 1007.9
20260504171757 22 289 9.7 32.2 0.00 0.00 0.00 26 1007.8
20260504171257 22 222 9.7 32.2 0.00 0.00 0.00 26 1007.8
20260504170758 22 200 11.3 35.4 0.00 0.00 0.00 26 1007.8
20260504170258 22 265 11.3 35.4 0.00 0.00 0.00 26 1007.9
20260504160259 21 275 12.9 40.2 0.00 0.00 0.00 27 1008.7
20260504150752 21 236 8.0 33.8 0.00 0.00 0.00 28 1009.1
20260504150252 22 260 6.4 17.7 0.00 0.00 0.00 28 1009.2
20260504141252 20 327 4.8 17.7 0.00 0.00 0.00 31 1009.5
20260504140752 20 256 6.4 24.1 0.00 0.00 0.00 32 1009.6
20260504140251 19 258 8.0 24.1 0.00 0.00 0.00 33 1009.7
20260504130749 17 285 8.0 25.7 0.00 0.00 0.00 36 1010.4
20260504130250 17 193 6.4 22.5 0.00 0.00 0.00 36 1010.5
20260504110242 10 278 3.2 6.4 0.00 0.00 0.00 51 1010.9
20260504100236 8 208 1.6 8.0 0.00 0.00 0.00 52 1010.9
20260504081734 8 223 1.6 6.4 0.00 0.00 0.00 54 1010.7
20260504081234 8 223 3.2 8.0 0.00 0.00 0.00 54 1010.7
20260504080232 8 236 1.6 4.8 0.00 0.00 0.00 54 1010.7
20260504060223 6 234 1.6 4.8 0.00 0.00 0.00 58 1010.6
20260504050221 6 227 1.6 6.4 0.00 0.00 0.00 56 1010.6